Regional Weather Roundup
Issued by NWS

Home | Current Version | Previous Version | Graphics & Text | Print | Product List | Glossary On
Versions: 1 2 3 4 5 6 7 8 9 10 11 12 13 14 15 16 17 18 19 20 21 22 23 24 25 26 27 28 29 30 31 32 33 34 35 36 37 38 39 40 41 42 43 44 45 46 47 48 49 50
000
ASUS43 KDTX 211110
RWRMI
MICHIGAN HOURLY REGIONAL WEATHER ROUNDUP
NATIONAL WEATHER SERVICE DETROIT/PONTIAC MI
700 AM EDT SAT OCT 21 2017

NOTE: "FAIR" INDICATES FEW OR NO CLOUDS BELOW 12,000 FEET WITH NO
SIGNIFICANT WEATHER AND/OR OBSTRUCTION TO VISIBILITY.

MIZ047>049-052>055-059>063-066>070-074>076-081>083-211200-
SOUTHEAST LOWER MICHIGAN

CITY           SKY/WX    TMP DP  RH WIND       PRES   REMARKS
ADRIAN         CLOUDY    47  46  97 CALM      30.21R FOG
ALMA           CLOUDY    53  48  83 S12       30.15R
ANN ARBOR      FOG       41  41 100 CALM      30.20R VSB 1/2
BAD AXE        PTCLDY    54  47  78 S7        30.17S
CARO           CLOUDY    54  48  81 CALM      30.16S
DETROIT CITY   PTCLDY    52  48  86 CALM      30.21R
DETROIT        MOCLDY    51  48  89 CALM      30.21R
FLINT          CLOUDY    56  49  77 S5        30.18R
GROSSE ILE     PTCLDY    57  53  85 S6        30.20S
HILLSDALE      CLOUDY    52  48  87 S5        30.18S
HOWELL         CLOUDY    51  49  92 SE6       30.18R

CITY           SKY/WX    TMP DP  RH WIND       PRES   REMARKS
JACKSON        CLOUDY    54  48  80 S5        30.19R
LAMBERTVILLE   CLOUDY    54  48  81 S3        30.20S
LANSING        CLOUDY    55  48  77 S7        30.17R
LAPEER         FAIR      44  44  97 CALM      30.19R
MASON          PTCLDY    55  49  80 S5        30.18R
MONROE         CLOUDY    49  46  89 CALM      30.20R
MT. CLEMENS    CLOUDY    50  50  99 S3        30.19R
PONTIAC        CLOUDY    52  48  86 S5        30.19R
PORT HOPE        N/A     59  48  67 VRB5      30.14R
PORT HURON     CLOUDY    46  45  93 CALM      30.21R
TRI CITIES     PTCLDY    56  51  84 S8        30.15S
MIDLAND        FAIR      54  49  85 CALM      30.14R
TROY           CLOUDY    54  48  81 SW3       30.22R
SAGINAW HB     PTCLDY    52  46  82 SE7       30.15S
$$
MIZ043>046-050>051-056>058-064>065-071>073-077>080-211200-
SOUTHWEST LOWER MICHIGAN

CITY           SKY/WX    TMP DP  RH WIND       PRES   REMARKS
BATTLE CREEK   CLOUDY    55  49  80 S8        30.16R
BENTON HARBOR  CLOUDY    58  48  69 SE6       30.12R
BIG RAPIDS     PTCLDY    48  47  93 S3        30.11S
COLDWATER      CLOUDY    55  49  81 S5        30.17R
FREMONT        FAIR      55  49  78 S3        30.09S
HOLLAND        CLOUDY    54  49  83 S7        30.12R
GRAND RAPIDS   MOCLDY    53  49  86 S8        30.13R
IONIA          FAIR      52  48  85 S5        30.14R
KALAMAZOO      MOCLDY    55  47  74 S5        30.16R
LUDINGTON      MOCLDY    59  50  72 SE5       30.05R
MARSHALL       CLOUDY    55  49  80 SE3       30.16S
MOUNT PLEASANT CLOUDY    53  50  89 CALM      30.13R
MUSKEGON       CLOUDY    63  50  62 S12       30.10R
SOUTH HAVEN    CLOUDY    58  49  73 S3        30.12R
$$
MIZ016>042-211200-
NORTHERN LOWER MICHIGAN

CITY           SKY/WX    TMP DP  RH WIND       PRES   REMARKS
ALPENA         PTCLDY    44  43  96 SE3       30.10R
BEAVER ISLAND  CLOUDY    63  51  66 S9        30.02S
BELLAIRE       PTCLDY    51  47  89 CALM      30.06F
CADILLAC       MOCLDY    58  47  69 S8        30.09R
CHARLEVOIX     MOCLDY    59  49  68 SE5       30.06F
FRANKFORT      MOCLDY    63  50  63 S6        30.03S
GAYLORD        CLOUDY    55  46  71 S7        30.09S
GRAYLING       CLOUDY    40  38  91 CALM      30.11S
HARBOR SPRINGS PTCLDY    62  46  56 S7        30.06S
HOUGHTON LAKE  PTCLDY    54  47  77 S5        30.12S
MANISTEE       CLOUDY    57  50  77 E6        30.04S
OSCODA         PTCLDY    54  51  92 SW9       30.13R
PELLSTON       MOCLDY    63  48  58 S6        30.05S
ROGERS CITY    CLOUDY    57  49  73 SW8       30.07S
TRAVERSE CITY  CLOUDY    65  48  54 CALM      30.04S
$$
MIZ007>008-015-211200-
EASTERN UPPER MICHIGAN

CITY           SKY/WX    TMP DP  RH WIND       PRES   REMARKS
KINROSS        CLOUDY    51  48  89 SE6       30.04R
MACKINAC ISLAN CLOUDY    63  47  55 S7        30.04S
NEWBERRY       CLOUDY    59  54  83 S12G18    29.99S
S. S. MARIE    PTCLDY    50  48  93 E6        30.04R
MUNISING         N/A     62  51  67 S10G20    29.91F
$$
MIZ004>006-011>014-085-211200-
CENTRAL UPPER MICHIGAN

CITY           SKY/WX    TMP DP  RH WIND       PRES   REMARKS
MANISTIQUE     CLOUDY    57  52  82 S3        29.98S
ESCANABA       CLOUDY    59  53  80 S9        29.95S
MENOMINEE      CLOUDY    58  51  78 S7        29.96R
SAWYER-GWINN   CLEAR     55  48  76 S12       29.93R
$$
MIZ001>003-009>011-084-211200-
WESTERN UPPER MICHIGAN

CITY           SKY/WX    TMP DP  RH WIND       PRES   REMARKS
IRON MOUNTAIN  CLOUDY    55  46  71 SE6       29.92R
HOUGHTON       MOCLDY    62  44  51 S7        29.82S
COPPER HARBOR    N/A     63  45  51 SW8       29.81F
IRONWOOD       CLOUDY    63  46  54 S13G22    29.78S
$$

ABBREVIATIONS USED IN REMARKS
   TC - TEMPERATURE IN CELSIUS
  WCI - WIND CHILL INDEX
   HX - HEAT INDEX
  VSB - VISIBILITY





USA.gov is the U.S. government's official web portal to all federal, state and local government web resources and services.